Location: Banff
(51.1670°N, 115.5670°W)
Time: 02:58:09
(UTC-06:00)

Daily predictions for brighter satellites

Satellite Brightness Start Highest point End
(mag) Time Altitude Azimuth Time Altitude Azimuth Time Altitude Azimuth
CENTAUR R/B 3.9 03:37:56 36° NNE 03:37:56 36° NNE 03:42:11 10° NE
ATLAS 3B R/B 4.1 03:48:58 30° N 03:48:58 30° N 03:54:05 10° NE
CZ-2D R/B 4.3 03:52:56 10° NNE 03:54:43 21° NNE 03:54:43 21° NNE
ADEOS II 4.4 04:02:05 10° NE 04:05:35 18° E 04:06:30 17° E
Cosmos 1943 Rocket 4.0 04:11:16 25° E 04:11:16 25° E 04:14:56 10° NE
Cosmos 2278 Rocket 4.2 04:38:48 19° N 04:38:48 19° N 04:41:17 10° NNE
Cosmos 2227 Rocket 4.3 04:47:13 10° NNW 04:51:41 23° NE 04:56:07 10° E
COSMOS 2455 4.2 04:52:45 29° NNW 04:52:45 29° NNW 04:56:59 10° NNE
ARIANE 5 R/B 4.2 04:47:35 10° N 04:49:37 24° N 04:49:37 24° N
Cosmos 2074 Rocket 4.3 04:47:03 10° N 04:52:02 58° N 04:52:02 58° N
Cosmos 2369 Rocket 2.6 04:56:13 61° NE 04:56:13 61° NE 05:00:52 10° NNE
CZ-4C R/B 3.3 04:59:52 49° S 04:59:52 49° S 05:05:34 10° SSE
USA 215 3.1 04:54:07 10° ENE 05:00:42 88° NNW 05:00:54 85° W
Okean O Rocket 3.8 05:00:08 10° NE 05:03:40 23° E 05:06:43 12° SE
Lacrosse 5 2.4 05:10:30 53° NNE 05:10:30 53° NNE 05:14:35 10° ENE
Resurs 1-4 Rocket 3.7 05:07:01 10° N 05:09:26 24° NNW 05:09:26 24° NNW
Cosmos 1340 Rocket 4.3 05:13:22 37° ENE 05:13:22 37° ENE 05:16:39 10° NNE
Cosmos 2219 3.6 05:15:19 16° NNW 05:19:52 60° NE 05:25:27 10° SE
USA 229 DEB 4.2 05:17:56 36° S 05:20:27 55° SE 05:27:13 10° NE
USA 229 4.2 05:18:00 36° S 05:20:33 54° ESE 05:27:18 10° NE
Cosmos 489 Rocket 4.4 05:22:33 58° S 05:23:52 83° ESE 05:30:11 10° NNE
Cosmos 2154 Rocket 4.0 05:18:58 10° N 05:25:21 81° ENE 05:31:41 10° SSE
CZ-4B R/B 4.1 05:22:04 10° NNE 05:24:49 35° ENE 05:24:49 35° ENE
CENTAUR R/B 3.7 05:25:06 31° NW 05:26:49 35° NNW 05:33:42 10° NE
Meteor 2-19 Rocket 4.3 05:22:18 10° NNW 05:28:30 79° W 05:34:39 10° S
Cosmos 2297 Rocket 3.9 05:24:49 10° NNW 05:29:49 30° NE 05:34:46 10° ESE
Cosmos 1656 Rocket 4.4 05:31:21 26° S 05:34:23 52° ESE 05:39:53 10° NE
USA 267 4.2 05:29:01 10° SSE 05:32:47 29° SSW 05:32:47 29° SSW
CZ-2D R/B 3.7 05:33:38 10° N 05:36:02 21° NNW 05:36:02 21° NNW
ATLAS 3B R/B 4.0 05:36:14 16° NW 05:40:48 33° NNE 05:46:44 10° E
Cosmos 1610 Rocket 4.4 05:39:39 10° NNW 05:45:45 62° W 05:51:46 10° S
ADEOS II 1.9 05:40:40 10° NNE 05:45:57 81° WNW 05:47:26 49° SSW
Cosmos 468 4.5 05:40:43 10° NNW 05:46:03 85° ENE 05:51:22 10° SSE
Meteor 1-16 Rocket 4.4 05:40:28 10° N 05:46:07 72° ENE 05:51:53 10° SSE
Landsat 4 4.4 05:49:21 10° SSE 05:53:02 55° ENE 05:56:44 10° N
Cosmos 1943 Rocket 2.1 05:52:50 54° W 05:53:44 62° NW 05:59:17 10° NNE
CZ-4B R/B 3.8 05:50:01 10° NNE 05:55:24 58° ESE 06:00:51 10° S
Cosmos 1898 Rocket 3.5 05:54:59 55° W 05:55:26 57° WNW 06:00:34 10° NNE
Cosmos 1937 Rocket 3.4 05:54:12 50° SW 05:55:33 75° WNW 06:00:53 10° NNE
Cosmos 2150 Rocket 3.9 05:54:45 44° SSW 05:56:29 82° WNW 06:01:53 10° NNE
ERBS 3.7 05:58:00 31° SSE 05:58:00 31° SSE 05:59:59 10° SE
Cosmos 962 Rocket 4.3 05:55:35 10° NNW 06:01:46 79° W 06:07:52 10° S
Cosmos 2218 Rocket 4.5 05:56:27 10° N 06:02:38 62° ENE 06:08:51 10° SSE
ATLAS CENTAUR R/B 3.7 06:01:43 11° NNW 06:03:42 15° NNE 06:06:01 10° ENE
Meteor 1-28 Rocket 4.1 06:01:05 10° SSE 06:04:47 51° ENE 06:08:31 10° N
PSLV R/B 3.4 06:02:42 10° N 06:06:59 72° WNW 06:08:18 43° SW
Cosmos 1953 Rocket 3.4 06:05:22 29° SSW 06:07:33 84° W 06:11:55 10° N
SJ 16-02 3.0 06:03:46 10° SSE 06:07:45 35° ESE 06:11:44 10° NE
Cosmos 1825 Rocket 3.5 06:07:17 52° WSW 06:08:03 62° WNW 06:12:29 10° N
Cosmos 1356 Rocket 3.9 06:06:24 10° S 06:10:39 65° E 06:14:56 10° NNE
PSLV R/B 3.8 06:11:08 10° N 06:14:31 51° NW 06:14:31 51° NW
Cosmos 990 Rocket 4.0 06:14:24 37° WSW 06:16:14 57° WNW 06:21:21 10° NNE
Cosmos 1809 Rocket 4.3 06:10:52 10° NNW 06:16:58 73° W 06:23:04 10° S
Cosmos 2341 Rocket 4.0 06:10:58 10° NNW 06:17:18 64° W 06:23:35 10° S
Cosmos 2278 Rocket 4.5 06:22:12 10° NNW 06:23:18 11° N 06:24:25 10° N
SKYMED 2 4.3 06:19:51 10° SSE 06:24:05 54° ENE 06:28:20 10° N
Cosmos 2181 Rocket 3.9 06:18:48 10° S 06:25:03 89° W 06:31:15 10° N
ARIANE 5 R/B 4.5 06:28:41 10° NNW 06:29:56 12° NW 06:29:56 12° NW
Cosmos 1048 Rocket 4.0 06:25:41 10° NNW 06:30:47 59° WSW 06:35:55 10° S
USA 116 3.6 06:27:11 10° S 06:30:54 73° WSW 06:35:10 10° NNW
Intercosmos 24 4.1 06:25:35 10° NNW 06:31:03 78° W 06:34:59 10° S
Cosmos 2298 Rocket 4.5 06:29:58 28° WSW 06:32:10 42° WNW 06:37:16 10° NNE
Cosmos 1959 Rocket 4.5 06:27:14 10° N 06:33:37 85° W 06:39:52 10° S
SWAS 4.4 06:31:37 15° NW 06:35:12 69° WSW 06:39:30 10° SSE
SL-08 R/B 4.5 06:29:26 10° N 06:35:39 86° E 06:41:54 10° S
Cosmos 2227 Rocket 2.3 06:30:53 10° NNW 06:36:37 83° ENE 06:42:18 10° SSE
Cosmos 2369 Rocket 3.4 06:38:02 22° WNW 06:39:53 26° NW 06:44:34 10° NNE
Meteor 2-21 Rocket 4.4 06:34:07 10° NNW 06:40:06 64° W 06:46:06 10° S
Meteor 1-24 Rocket 4.0 06:34:07 10° S 06:40:07 77° E 06:46:01 10° NNE
Okean O Rocket 1.8 06:36:02 10° N 06:40:16 47° WNW 06:44:10 12° SW
Meteor 1-31 Rocket 2.6 06:36:35 10° N 06:40:25 76° WNW 06:44:11 10° SSW
Cosmos 158 Rocket 4.4 06:36:38 10° NW 06:41:42 42° WSW 06:46:44 10° S
USA 215 3.6 06:37:08 10° ENE 06:43:30 56° N 06:48:15 19° W
Cosmos-2242 3.5 06:41:30 10° NNW 06:45:24 35° W 06:49:19 10° SSW
CZ-4C R/B 4.1 06:45:10 19° WSW 06:45:30 19° WSW 06:50:30 10° SSW
Cosmos 1726 4.1 06:44:19 10° N 06:47:38 31° ENE 06:50:57 10° SE
Cosmos 1340 Rocket 4.0 06:49:02 23° WNW 06:49:27 23° WNW 06:52:47 10° N
Cosmos 1707 3.6 06:51:06 22° WSW 06:52:37 29° WNW 06:56:06 10° N
Lacrosse 5 2.6 06:49:42 18° WNW 06:53:04 43° N 06:57:56 10° ENE
Cosmos 1607 4.2 06:46:41 10° NW 06:53:13 79° NE 06:59:42 10° SE
Cosmos 1758 Rocket 4.4 06:51:33 17° WSW 06:54:20 31° WNW 06:58:21 10° N
Cosmos 1378 4.1 06:53:10 22° WSW 06:54:31 28° WNW 06:57:50 10° N
Okean-O 2.9 06:51:26 10° NNE 06:55:53 71° ESE 07:00:18 10° S
CZ-4B R/B 4.0 06:57:47 10° NNW 07:00:28 20° WNW 07:00:58 19° WNW
Cosmos 2219 4.0 06:58:54 10° NW 07:03:40 28° WSW 07:08:23 10° SSW
Cosmos 1908 3.1 07:01:42 10° NNW 07:05:35 83° W 07:09:24 10° S
CZ-2C R/B 4.4 07:01:36 10° SSW 07:05:52 32° W 07:10:07 10° NNW
USA 81 4.2 07:00:54 10° SSW 07:06:02 53° WNW 07:11:14 10° N
Cosmos 2366 rocket 4.0 07:01:54 10° NNW 07:07:53 55° W 07:13:51 10° SSW
NOSS 3-1 (C) 3.5 07:03:11 10° SW 07:09:06 76° NW 07:15:57 10° NE
USA 229 DEB 4.0 07:05:25 12° WSW 07:11:33 52° NNW 07:18:26 10° NE
USA 229 4.0 07:05:29 12° WSW 07:11:38 52° NNW 07:18:31 10° NE
COSMO-SKYMED 1 2.7 07:07:55 10° S 07:12:10 53° W 07:16:27 10° NNW
Cosmos 1356 3.5 07:10:01 10° SSW 07:13:27 52° WNW 07:16:53 10° N
Cosmos 2297 Rocket 2.2 07:08:42 10° NW 07:14:19 65° WSW 07:19:53 10° SSE
EO 1 Del DPAF 3.8 07:11:40 10° SSW 07:15:12 34° W 07:18:45 10° NNW
NOSS 3-1 (A) 3.5 07:09:18 10° SW 07:15:15 88° NW 07:22:06 10° NE
Cosmos 2221 2.5 07:13:09 10° NNW 07:17:34 80° W 07:21:57 10° S
Cosmos 1656 Rocket 4.3 07:13:00 10° WSW 07:18:13 36° NW 07:23:26 10° NNE
CENTAUR R/B 4.1 07:13:02 10° NW 07:19:31 34° NNE 07:26:43 10° ENE
Cosmos 1842 Rocket 4.1 07:18:03 10° NNW 07:22:03 35° W 07:25:59 10° SSW
Cosmos 2082 3.8 07:16:43 10° NW 07:22:18 59° WSW 07:27:48 10° S
Meteor 2-5 Rocket 4.3 07:18:02 10° SW 07:23:28 38° WNW 07:28:52 10° N
ADEOS II 3.6 07:21:41 10° NNW 07:24:55 17° NW 07:28:09 10° W
In-Cosmos 22 4.3 07:22:11 10° SSW 07:27:45 57° WNW 07:33:27 10° N
Cosmos 1697 Rocket 4.3 07:24:34 10° S 07:29:48 40° ESE 07:35:03 10° NE
CZ-4 R/B 4.2 07:27:34 10° NE 07:30:45 23° E 07:33:53 10° SSE
ATLAS 3B R/B 2.9 07:25:47 10° NW 07:32:38 71° NE 07:39:08 10° SE
Cosmos 372 Rocket 4.3 07:27:56 10° SW 07:32:58 47° WNW 07:38:05 10° NNE
CZ-4B R/B 4.1 07:31:06 10° N 07:35:40 28° WNW 07:40:18 10° WSW
IDEFIX/ARIANE 42P 2.6 07:30:39 10° NNE 07:35:57 88° WNW 07:41:11 10° SSW
Cosmos 1300 3.0 07:32:27 10° N 07:36:19 72° ENE 07:40:07 10° SSE
Thor Agena Rocket 3.6 07:32:50 10° S 07:38:05 68° WSW 07:43:19 10° NNW
PAYLOAD A 3.8 07:33:44 10° NNE 07:38:26 76° WNW 07:43:13 10° SSW
Cosmos 1943 Rocket 3.7 07:34:53 10° WNW 07:38:40 18° NNW 07:42:29 10° N
Meteor 2-10 4.3 07:33:26 10° NNW 07:38:53 88° E 07:44:30 10° SSE
GRACE-2 4.4 07:37:03 10° N 07:39:35 58° E 07:42:06 10° S
Cosmos 2098 Rocket 4.5 07:33:10 10° NNW 07:40:32 81° W 07:48:03 10° S
Cosmos 2263 Rocket 3.9 07:36:14 10° NNW 07:41:10 30° NE 07:46:03 10° ESE
GRACE-1 4.0 07:40:44 10° N 07:43:18 70° E 07:45:52 10° S
ATLAS CENTAUR R/B 1.9 07:39:45 10° NW 07:43:26 53° NE 07:47:15 10° ESE
Cosmos 1980 Rocket 4.4 07:38:43 10° SSE 07:43:33 31° ESE 07:48:27 10° NE
Cosmos 1821 Rocket 4.1 07:38:11 10° NNW 07:44:35 81° W 07:50:59 10° S
SJ 16-02 2.1 07:42:24 10° WSW 07:46:22 32° WNW 07:50:21 10° N
Cosmos 1934 Rocket 4.2 07:41:01 10° N 07:47:21 84° ENE 07:53:33 10° S
